This is the latest recevied weather packets stored in our database for station/object SP3WRO-13. If no packets are shown the sender has not sent any weather packets the latest 10 day(s).
| Time | Temp. | Humidity | Pressure | Rain* | Wind** | Luminosity | Snow |
|---|---|---|---|---|---|---|---|
| 1777508042 | -2.22° C | 85% | 1028.3 hPa | - | - | - | - |
| 1777507142 | -2.22° C | 84% | 1028.3 hPa | - | - | - | - |
| 1777506242 | -2.22° C | 83% | 1028.3 hPa | - | - | - | - |
| 1777505342 | -1.67° C | 83% | 1028.5 hPa | - | - | - | - |
| 1777504442 | -1.67° C | 83% | 1028.4 hPa | - | - | - | - |
| 1777503542 | -1.67° C | 83% | 1028.3 hPa | - | - | - | - |
| 1777502642 | -1.11° C | 83% | 1028.2 hPa | - | - | - | - |
| 1777501742 | -1.11° C | 81% | 1028.1 hPa | - | - | - | - |
| 1777500842 | -1.11° C | 80% | 1028 hPa | - | - | - | - |
| 1777499942 | -0.56° C | 80% | 1027.8 hPa | - | - | - | - |
| 1777499042 | -0.56° C | 79% | 1027.8 hPa | - | - | - | - |
| 1777498142 | 0° C | 76% | 1027.7 hPa | - | - | - | - |
| 1777497242 | 0.56° C | 76% | 1027.7 hPa | - | - | - | - |
| 1777496342 | 0.56° C | 74% | 1027.7 hPa | - | - | - | - |
| 1777495441 | 1.11° C | 72% | 1027.5 hPa | - | - | - | - |
| 1777494541 | 1.67° C | 73% | 1027.4 hPa | - | - | - | - |
| 1777493641 | 2.22° C | 71% | 1027.3 hPa | - | - | - | - |
| 1777492741 | 2.22° C | 72% | 1027.2 hPa | - | - | - | - |
| 1777491841 | 2.78° C | 66% | 1026.9 hPa | - | - | - | - |
| 1777490941 | 3.33° C | 66% | 1026.7 hPa | - | - | - | - |
| 1777490041 | 3.89° C | 64% | 1026.6 hPa | - | - | - | - |
| 1777489141 | 4.44° C | 62% | 1026.5 hPa | - | - | - | - |
| 1777488241 | 5.56° C | 59% | 1026.3 hPa | - | - | - | - |
| 1777487341 | 6.11° C | 58% | 1026.1 hPa | - | - | 1 W/m² | - |
| 1777486441 | 7.22° C | 53% | 1026 hPa | - | - | 4 W/m² | - |
* Rain since midnight (hover to see other rain measurements)
** Current wind speed in m/s (hover to see current wind gust speed)